SCP
-0 -0 -0 0 0 0 0 0 0 0 0 0 0 0 0 0 0 0 0 0 0 0 0 0 0 0 0 0 0 0 0 0 0 0 0 0 0 0 0 0 0 0 0 0 0 0 0
0 0 0 0 0 0 0 0 0 0 0 0 0 0 0 0 0 0 0 0 0 0 -0 0 0 0 0 0 0 0 0 0 0 0 0 0 0 0 0 0 0 0 0 0 0 0 0
-0 0 0 0 0 0 0 0 0 0 0 0 0 0 0 0 0 0 0 0 0 0 0 0 0 0 0 0 0 0 0 0 0 0 0 0 0 0 0 0 0 0 0 0 0 0 0
0 0 0 0 0 0 0 0 0 0 0 0 0 0 0 0 0 0 0 0 0 0 0 0 0 0 0 0 0 0 0 0 0 0 0 0 0 0 0 0 0 0 0 0 0 0 0
0 0 0 0 0 0 0 0 0 0 0 0 0 0 0 0 0 0 0 0 0 0 0 0 0 0 0 0 0 0 0 0 0 0 0 0 0 0 0 0 0 0 0 0 0 0 0
0 -0 -0 0 0 0 0 0 0 0 -0 -0 -0 -0 0 0 0 -0 -0 -0 0 0 -0 -0 0 0 0 0 0 0 0 0 0 0 0 0 0 0 0 0 0 0 0 0 0 0 0
-0 -0 -0 0 0 0 0 0 0 0 0 -0 -0 0 0 0 -0 -0 -0 0 0 0 0 0 0 0 0 0 0 0 0 0 0 0 0 0 0 0 0 0 0 0 0 0 0 0 0
-0 -0 0 0 0 0 0 0 0 0 0 0 -0 -0 0 0 -0 -0 -0 0 0 0 0 0 0 0 0 0 0 0 0 0 0 0 0 0 0 0 0 0 0 0 0 0 0 0 0
0 -0 0 0 0 0 0 0 0 0 -0 -0 -0 -0 -0 -0 -0 0 0 0 0 0 0 0 0 0 0 0 0 0 0 0 0 0 0 0 0 0 0 0 0 0 0 0 0 0 0
0 0 0 0 0 0 0 0 0 -0 -0 -0 -0 -0 -0 -0 0 0 0 -0 -0 0 0 0 0 0 0 0 0 0 0 0 0 0 0 0 0 0 0 0 0 0 0 0 0 0 0
0 0 0 0 0 0 0 0 -0 -0 -0 -0 -0 -0 -0 0 0 0 0 -0 0 0 0 0 0 0 0 0 0 0 0 0 0 0 0 0 0 0 0 0 0 0 0 0 0 0 0
0 0 0 0 0 0 0 0 -0 -0 -0 -0 -0 -0 -0 0 0 0 -0 -0 0 0 0 0 0 0 0 0 0 0 0 0 0 0 0 0 0 0 0 0 0 0 0 0 0 0 0
0 0 0 0 0 0 0 -0 -0 -0 -0 -0 -0 -0 0 0 0 -0 -0 0 0 0 0 0 0 0 0 0 0 0 0 0 0 0 0 0 0 0 0 0 0 0 0 0 0 0 0
0 0 0 0 0 0 0 -0 -0 -0 -0 -0 -0 -0 0 0 0 0 0 0 0 0 0 0 0 0 0 0 0 0 0 0 0 0 0 0 0 0 0 0 0 0 0 0 0 0 0
0 0 0 0 0 0 -0 -0 -0 -0 -0 -0 -0 0 0 0 0 0 0 0 0 0 0 0 0 0 0 0 0 0 0 0 0 0 0 0 0 0 0 0 0 0 0 0 0 0 0
0 0 0 0 0 0 -0 0 -0 -0 -0 -0 0 0 0 0 0 0 0 0 0 0 0 0 0 0 0 0 0 0 0 0 0 0 0 0 0 0 0 0 0 0 0 0 0 0 0
0 0 0 0 0 0 0 0 -0 -0 -0 -0 0 0 0 -0 0 0 0 0 0 0 0 0 0 0 0 0 0 0 0 0 0 0 0 0 0 0 0 0 0 0 0 0 0 0 0
0 0 0 0 0 0 0 -0 -0 -0 -0 -0 0 0 0 0 0 0 0 0 0 0 0 0 0 0 0 0 0 0 0 0 0 0 0 0 0 0 0 0 0 0 0 0 0 0 0
0 0 0 0 0 0 0 -0 -0 -0 0 0 -0 0 0 0 0 0 0 0 0 0 0 0 0 0 0 0 0 0 0 0 0 0 0 0 0 0 0 0 0 0 0 0 0 0 0
0 0 0 0 0 0 0 0 0 0 0 0 -0 0 0 0 0 0 0 0 0 0 0 0 0 0 0 0 0 0 0 0 0 0 0 0 0 0 0 0 0 0 0 0 0 0 0
0 0 0 0 0 0 0 0 0 0 0 0 0 0 0 0 0 0 0 0 0 0 0 0 0 0 0 0 0 0 0 0 0 0 0 0 0 0 0 0 0 0 0 0 0 0 0
0 0 0 0 0 0 0 0 0 0 0 0 0 0 0 0 0 0 0 0 0 0 0 0 0 0 0 0 0 0 0 0 0 0 0 0 0 0 0 0 0 0 0 0 0 0 0
0 0 0 0 0 0 0 0 0 0 0 0 0 0 0 0 0 0 0 0 0 0 0 0 0 0 0 0 0 0 0 0 0 0 0 0 0 0 0 0 0 0 0 0 0 0 0
0 0 -0 0 0 0 0 0 0 0 0 0 0 0 0 0 0 0 0 0 0 0 0 0 0 0 0 0 0 0 0 0 0 0 0 0 0 0 0 0 0 0 0 0 0 0 0
0 0 0 0 0 0 0 0 0 0 0 0 0 0 0 0 0 0 0 0 0 0 0 0 0 0 0 0 0 0 0 0 0 0 0 0 0 0 0 0 0 -0 0 0 0 0 0
0 0 -0 0 0 0 0 0 0 0 0 0 0 0 0 0 0 0 0 0 0 0 0 0 0 0 0 0 0 0 0 0 0 0 0 0 0 -0 0 0 0 0 0 0 0 0 0
0 0 0 0 0 0 0 0 0 0 0 0 0 0 0 0 0 0 0 0 0 0 0 0 0 0 0 0 0 0 0 0 0 0 0 0 0 0 -0 0 0 0 0 0 0 0 0
0 0 0 0 0 0 0 0 0 0 0 0 0 0 0 0 0 0 0 0 0 0 0 0 0 0 0 0 0 0 0 0 0 0 0 0 0 0 0 0 0 0 0 0 0 0 0
0 0 0 0 0 0 0 0 0 0 0 0 0 0 0 0 0 0 0 0 0 0 0 0 0 0 0 0 0 0 0 0 0 0 0 0 0 0 0 0 0 0 0 0 0 0 0
Wind_Speed_500mb
43 46 49 51 52 52 51 49 49 50 52 53 52 52 50 47 43 42 37 32 30 29 28 25 22 19 14 10 15 17 14 16 31 37 35 33 33 31 26 26 22 31 22 19 24 22 22
45 49 51 54 53 52 52 50 50 52 54 55 55 55 53 50 47 43 40 35 30 28 26 23 21 20 10 19 17 17 22 25 28 33 32 30 20 27 18 23 28 11 34 22 18 23 20
46 50 51 53 54 55 54 53 53 54 56 57 59 61 58 52 47 44 40 35 28 26 23 20 19 19 17 23 15 14 21 27 26 28 28 27 19 23 12 15 19 17 20 25 27 28 23
45 48 49 51 54 55 56 56 55 57 58 60 63 65 60 54 48 41 37 30 23 19 17 13 15 12 14 20 10 20 24 26 27 23 14 24 21 25 23 6 14 23 21 26 13 19 23
45 48 49 53 55 58 58 59 59 61 62 63 65 66 58 54 46 38 26 20 16 15 11 6 5 8 6 9 7 21 25 25 26 22 12 15 25 21 21 25 20 20 24 21 16 16 10
46 49 50 53 58 61 60 59 60 62 62 61 63 61 57 53 40 27 22 15 15 12 13 9 2 6 4 6 5 11 26 26 27 28 20 22 23 21 25 26 25 21 25 18 21 15 20
49 52 52 54 58 61 62 63 62 63 63 61 62 52 53 43 30 26 24 17 15 3 12 14 21 19 23 21 22 11 16 28 25 34 31 34 23 28 32 29 27 12 17 17 13 6 15
50 55 55 55 60 64 64 64 63 63 63 60 59 41 44 33 32 16 30 15 15 14 15 8 7 9 11 14 12 14 21 35 34 34 37 18 34 31 15 16 19 21 24 24 13 14 19
50 56 58 58 61 64 65 66 66 65 64 60 57 38 33 30 29 25 20 30 31 16 12 7 4 11 11 2 4 12 26 39 36 38 34 36 4 15 23 23 27 25 25 20 20 15 20
49 57 59 62 62 66 68 69 68 66 63 58 55 39 30 32 13 27 16 41 25 9 9 10 8 14 13 8 9 6 24 31 27 39 39 35 34 13 21 29 27 30 25 25 20 19 22
49 58 60 62 64 66 68 71 71 67 64 59 53 37 27 27 21 18 32 34 11 3 7 11 13 13 10 14 16 7 6 35 34 31 29 28 28 29 26 26 24 28 18 26 25 24 26
50 58 61 61 62 65 69 72 74 70 65 58 52 34 21 28 23 28 34 20 1 11 4 4 6 20 18 24 11 6 6 13 16 29 24 31 8 5 11 1 16 8 17 22 22 24 30
53 60 61 60 64 67 69 72 74 70 66 60 53 32 14 22 30 31 26 7 11 7 2 8 13 18 10 13 17 16 4 6 13 25 33 30 16 6 4 20 16 22 23 19 24 25 29
52 59 62 64 66 68 68 71 73 72 66 61 52 31 5 16 35 25 15 11 9 5 7 6 14 14 6 19 8 12 4 3 9 15 23 31 21 10 6 10 17 26 27 25 30 26 26
50 59 63 66 67 69 70 71 71 71 65 62 49 15 11 26 27 16 14 5 9 7 9 17 18 10 4 5 13 12 5 5 11 23 10 11 12 7 8 12 6 16 22 13 20 18 20
53 58 62 67 69 71 73 72 71 69 64 59 45 7 12 37 16 8 6 9 2 7 12 10 11 4 12 15 15 11 7 11 4 12 19 5 7 9 4 7 9 6 5 8 8 14 26
53 56 61 67 71 72 74 71 66 65 60 52 28 5 16 32 12 4 5 8 0 4 12 10 10 16 13 16 13 17 7 10 13 12 13 11 10 13 9 17 10 12 14 9 8 15 12
52 55 61 68 73 74 72 66 61 58 56 48 18 4 27 14 6 5 7 5 5 5 6 6 9 9 8 11 15 9 10 9 19 11 14 4 7 20 26 15 14 21 24 28 21 30 22
53 57 64 71 75 72 67 59 53 46 45 46 20 8 18 15 7 8 4 1 2 4 6 4 4 4 4 8 9 5 7 7 13 8 9 2 7 14 18 16 15 20 19 25 31 27 35
53 58 67 73 73 68 62 52 45 36 31 27 12 5 8 17 11 7 6 3 1 1 2 4 6 8 10 11 7 9 10 1 10 8 10 5 13 18 20 14 12 8 14 17 19 22 30
54 59 69 73 68 62 55 45 40 31 22 14 8 7 5 6 8 8 6 3 6 3 3 5 8 5 7 10 14 18 12 16 16 4 8 7 22 13 20 14 16 19 19 19 22 22 20
53 62 72 71 62 56 47 40 33 27 15 8 9 8 2 7 5 10 5 4 8 2 6 4 13 5 10 14 13 25 21 18 14 6 11 6 15 12 23 9 17 22 24 25 26 25 24
53 63 74 69 57 50 41 31 22 22 16 6 6 4 5 7 4 9 3 2 2 8 5 6 6 12 15 14 18 22 21 24 23 16 12 13 16 13 23 3 19 27 30 34 33 26 19
56 63 73 63 50 43 34 22 11 15 16 7 7 4 9 3 7 6 5 7 12 11 17 13 18 17 7 14 25 31 33 32 33 29 19 14 19 14 16 12 22 3 7 15 20 17 14
56 63 71 58 46 38 25 9 8 11 14 9 6 1 7 10 7 13 11 9 9 9 15 12 9 7 14 16 17 16 13 14 25 30 27 21 19 7 8 17 22 31 9 8 12 15 12
56 62 67 55 39 30 12 6 9 9 12 10 5 6 5 11 2 2 8 5 10 6 8 6 2 7 6 16 7 12 6 7 7 13 14 26 22 15 14 9 7 12 7 1 3 20 14
55 59 67 52 29 19 7 6 9 10 11 5 6 6 4 7 6 8 8 5 4 5 7 3 6 8 8 5 6 9 8 3 7 6 13 19 21 23 19 10 14 8 8 4 14 6 11
51 59 61 37 20 12 6 8 8 12 15 6 8 8 6 7 14 15 17 15 10 8 3 7 8 9 7 6 6 4 8 3 10 2 8 13 14 13 19 11 16 9 12 13 9 3 9
53 57 50 27 19 10 12 12 12 15 18 8 3 9 13 13 11 11 16 19 17 11 13 7 4 4 3 4 4 5 8 7 6 6 8 8 7 5 12 7 4 10 6 2 7 18 25
Wind_Direction_500mb
37 30 25 21 18 17 14 11 9 7 4 1 357 351 346 340 334 332 326 312 304 305 305 292 284 290 313 261 256 219 204 175 169 181 188 190 195 208 223 222 217 235 250 245 244 242 248
31 26 21 17 15 13 11 8 6 4 1 358 354 349 345 338 332 329 325 317 301 299 298 284 275 278 286 256 253 230 203 184 178 179 192 199 211 218 270 230 220 230 239 242 238 238 232
26 22 19 17 16 14 11 7 3 0 359 355 351 347 344 338 332 327 325 318 306 299 291 276 265 272 259 260 255 227 200 188 188 187 197 205 222 199 219 217 225 228 238 222 234 237 234
23 19 17 15 13 12 10 7 3 358 357 353 351 347 346 341 335 330 328 322 316 307 293 266 255 262 259 256 248 213 185 188 187 193 204 213 210 220 225 157 197 228 239 248 189 218 222
19 17 16 13 11 8 6 4 1 357 356 353 351 348 348 344 340 338 340 337 333 329 338 314 259 215 265 307 252 213 192 188 182 192 207 186 178 212 194 213 212 205 249 214 164 207 190
17 13 13 11 7 3 2 1 359 357 357 354 352 351 351 349 352 10 4 354 341 7 38 41 75 238 232 72 122 154 188 184 173 173 176 182 201 214 222 214 225 226 220 225 250 160 224
15 11 9 5 3 3 3 2 359 358 359 358 355 358 1 7 32 29 26 14 352 73 322 305 310 285 291 278 253 231 185 187 192 191 204 200 218 219 218 223 265 261 259 254 235 237 252
13 9 5 2 1 2 1 1 0 360 1 0 358 5 9 27 13 27 36 45 26 315 308 335 316 354 317 256 256 199 193 192 201 212 210 181 228 235 232 227 233 233 237 240 255 230 222
9 7 5 3 2 2 1 360 360 360 1 1 358 3 8 6 21 24 17 1 342 346 264 2 24 1 10 50 233 236 203 206 206 218 202 226 150 232 219 209 222 228 236 230 255 163 236
6 3 2 2 1 2 2 360 359 359 0 1 357 359 3 7 17 6 5 342 332 322 264 37 31 30 359 317 213 299 218 211 215 227 219 236 248 222 217 224 219 237 213 242 225 225 244
1 359 359 356 358 360 360 359 358 357 358 1 357 354 359 0 355 1 336 342 332 281 247 24 20 360 334 3 336 67 215 215 239 219 215 222 226 220 228 236 226 252 224 222 233 242 257
355 354 353 354 357 357 357 357 356 355 356 359 356 350 345 357 1 338 341 341 302 233 107 33 10 354 351 25 32 336 224 222 249 245 221 248 137 263 291 327 246 251 225 236 241 246 237
353 352 353 355 354 354 353 353 354 353 353 356 355 345 315 338 338 337 333 311 251 294 62 27 344 340 341 2 26 24 17 196 262 214 217 201 183 156 313 238 208 219 225 227 221 226 242
352 354 353 351 350 350 349 349 349 350 352 353 356 349 326 340 341 339 331 253 257 53 12 5 329 314 19 10 37 6 279 179 52 280 278 221 184 228 30 264 291 219 242 247 254 246 235
344 347 349 349 349 347 347 346 345 348 350 349 356 25 27 346 344 345 285 273 25 16 355 338 307 286 170 17 325 319 8 353 27 7 282 247 196 141 69 40 267 184 230 352 289 276 279
335 337 342 344 345 345 344 342 342 345 349 350 354 43 2 350 353 351 272 54 58 24 337 316 305 323 311 341 315 334 286 63 32 11 344 51 251 204 118 235 90 295 72 222 229 270 262
333 335 336 339 340 341 340 339 342 343 347 352 2 323 339 350 45 21 32 58 347 50 344 321 322 299 312 324 315 315 300 83 9 326 312 301 267 179 211 211 248 180 196 229 267 229 245
332 333 337 338 338 339 338 338 341 344 346 359 357 309 347 33 66 31 35 357 344 314 339 301 288 295 298 315 302 291 294 333 353 300 294 32 291 263 254 28 285 264 269 278 249 231 239
333 334 337 338 337 338 337 338 340 349 354 355 338 324 352 18 22 38 58 190 280 330 2 315 272 305 315 301 291 275 295 4 356 315 340 156 217 250 213 204 206 245 236 242 257 273 257
334 334 336 337 336 336 337 339 338 352 355 357 333 321 41 46 57 350 0 85 244 331 222 289 302 260 275 260 227 280 275 298 338 356 12 298 275 278 287 2 325 267 237 232 238 244 253
333 335 337 337 336 336 336 338 338 352 358 9 353 59 10 345 47 355 305 310 290 241 225 255 199 278 294 282 285 266 290 281 247 261 242 267 259 250 268 289 279 277 263 235 239 260 269
331 335 338 338 336 336 336 336 339 350 5 35 326 324 288 306 285 277 148 157 292 322 280 215 275 298 286 278 299 302 305 275 280 242 246 211 262 285 276 245 268 272 263 255 260 258 260
332 334 337 336 335 337 336 335 345 348 25 9 324 308 286 131 219 276 49 61 218 310 232 280 314 296 279 311 313 293 285 280 280 285 273 256 263 249 271 172 282 269 262 255 246 241 256
328 332 336 334 334 337 335 337 357 2 18 6 291 296 270 261 257 294 242 274 275 281 278 274 287 271 349 304 293 270 260 258 254 249 237 270 250 274 269 272 273 22 348 289 240 220 221
325 329 334 332 332 336 335 347 350 3 1 5 318 282 284 283 303 259 252 257 262 246 250 274 283 294 312 281 273 263 212 231 235 231 227 224 258 257 252 269 273 280 191 216 203 201 217
319 325 331 328 326 331 334 352 328 348 350 342 314 226 278 304 87 319 262 272 294 287 214 205 239 298 283 279 263 259 270 332 169 171 234 221 232 247 263 238 264 51 83 172 256 257 104
314 324 326 323 319 319 303 315 326 334 323 306 286 265 250 270 286 228 263 304 286 261 287 236 340 225 224 225 257 264 257 298 257 225 167 183 205 223 236 256 289 53 132 142 245 58 117
311 316 319 315 308 300 250 272 298 310 325 305 270 254 212 251 277 258 247 254 223 235 275 29 255 196 244 243 258 275 268 26 267 244 193 186 186 203 224 229 255 117 161 248 70 79 305
308 313 316 306 300 249 257 254 272 280 311 311 291 280 247 255 262 267 229 219 222 247 280 243 302 230 309 271 274 287 258 216 265 258 188 254 257 287 192 220 75 195 281 181 298 300 300
Wind_Speed_850mb
43 46 49 51 52 52 51 49 49 50 52 53 52 52 50 47 43 42 37 32 30 29 28 25 22 19 14 10 15 17 14 16 31 37 35 33 33 31 26 26 22 31 22 19 24 22 22
45 49 51 54 53 52 52 50 50 52 54 55 55 55 53 50 47 43 40 35 30 28 26 23 21 20 10 19 17 17 22 25 28 33 32 30 20 27 18 23 28 11 34 22 18 23 20
46 50 51 53 54 55 54 53 53 54 56 57 59 61 58 52 47 44 40 35 28 26 23 20 19 19 17 23 15 14 21 27 26 28 28 27 19 23 12 15 19 17 20 25 27 28 23
45 48 49 51 54 55 56 56 55 57 58 60 63 65 60 54 48 41 37 30 23 19 17 13 15 12 14 20 10 20 24 26 27 23 14 24 21 25 23 6 14 23 21 26 13 19 23
45 48 49 53 55 58 58 59 59 61 62 63 65 66 58 54 46 38 26 20 16 15 11 6 5 8 6 9 7 21 25 25 26 22 12 15 25 21 21 25 20 20 24 21 16 16 10
46 49 50 53 58 61 60 59 60 62 62 61 63 61 57 53 40 27 22 15 15 12 13 9 2 6 4 6 5 11 26 26 27 28 20 22 23 21 25 26 25 21 25 18 21 15 20
49 52 52 54 58 61 62 63 62 63 63 61 62 52 53 43 30 26 24 17 15 3 12 14 21 19 23 21 22 11 16 28 25 34 31 34 23 28 32 29 27 12 17 17 13 6 15
50 55 55 55 60 64 64 64 63 63 63 60 59 41 44 33 32 16 30 15 15 14 15 8 7 9 11 14 12 14 21 35 34 34 37 18 34 31 15 16 19 21 24 24 13 14 19
50 56 58 58 61 64 65 66 66 65 64 60 57 38 33 30 29 25 20 30 31 16 12 7 4 11 11 2 4 12 26 39 36 38 34 36 4 15 23 23 27 25 25 20 20 15 20
49 57 59 62 62 66 68 69 68 66 63 58 55 39 30 32 13 27 16 41 25 9 9 10 8 14 13 8 9 6 24 31 27 39 39 35 34 13 21 29 27 30 25 25 20 19 22
49 58 60 62 64 66 68 71 71 67 64 59 53 37 27 27 21 18 32 34 11 3 7 11 13 13 10 14 16 7 6 35 34 31 29 28 28 29 26 26 24 28 18 26 25 24 26
50 58 61 61 62 65 69 72 74 70 65 58 52 34 21 28 23 28 34 20 1 11 4 4 6 20 18 24 11 6 6 13 16 29 24 31 8 5 11 1 16 8 17 22 22 24 30
53 60 61 60 64 67 69 72 74 70 66 60 53 32 14 22 30 31 26 7 11 7 2 8 13 18 10 13 17 16 4 6 13 25 33 30 16 6 4 20 16 22 23 19 24 25 29
52 59 62 64 66 68 68 71 73 72 66 61 52 31 5 16 35 25 15 11 9 5 7 6 14 14 6 19 8 12 4 3 9 15 23 31 21 10 6 10 17 26 27 25 30 26 26
50 59 63 66 67 69 70 71 71 71 65 62 49 15 11 26 27 16 14 5 9 7 9 17 18 10 4 5 13 12 5 5 11 23 10 11 12 7 8 12 6 16 22 13 20 18 20
53 58 62 67 69 71 73 72 71 69 64 59 45 7 12 37 16 8 6 9 2 7 12 10 11 4 12 15 15 11 7 11 4 12 19 5 7 9 4 7 9 6 5 8 8 14 26
53 56 61 67 71 72 74 71 66 65 60 52 28 5 16 32 12 4 5 8 0 4 12 10 10 16 13 16 13 17 7 10 13 12 13 11 10 13 9 17 10 12 14 9 8 15 12
52 55 61 68 73 74 72 66 61 58 56 48 18 4 27 14 6 5 7 5 5 5 6 6 9 9 8 11 15 9 10 9 19 11 14 4 7 20 26 15 14 21 24 28 21 30 22
53 57 64 71 75 72 67 59 53 46 45 46 20 8 18 15 7 8 4 1 2 4 6 4 4 4 4 8 9 5 7 7 13 8 9 2 7 14 18 16 15 20 19 25 31 27 35
53 58 67 73 73 68 62 52 45 36 31 27 12 5 8 17 11 7 6 3 1 1 2 4 6 8 10 11 7 9 10 1 10 8 10 5 13 18 20 14 12 8 14 17 19 22 30
54 59 69 73 68 62 55 45 40 31 22 14 8 7 5 6 8 8 6 3 6 3 3 5 8 5 7 10 14 18 12 16 16 4 8 7 22 13 20 14 16 19 19 19 22 22 20
53 62 72 71 62 56 47 40 33 27 15 8 9 8 2 7 5 10 5 4 8 2 6 4 13 5 10 14 13 25 21 18 14 6 11 6 15 12 23 9 17 22 24 25 26 25 24
53 63 74 69 57 50 41 31 22 22 16 6 6 4 5 7 4 9 3 2 2 8 5 6 6 12 15 14 18 22 21 24 23 16 12 13 16 13 23 3 19 27 30 34 33 26 19
56 63 73 63 50 43 34 22 11 15 16 7 7 4 9 3 7 6 5 7 12 11 17 13 18 17 7 14 25 31 33 32 33 29 19 14 19 14 16 12 22 3 7 15 20 17 14
56 63 71 58 46 38 25 9 8 11 14 9 6 1 7 10 7 13 11 9 9 9 15 12 9 7 14 16 17 16 13 14 25 30 27 21 19 7 8 17 22 31 9 8 12 15 12
56 62 67 55 39 30 12 6 9 9 12 10 5 6 5 11 2 2 8 5 10 6 8 6 2 7 6 16 7 12 6 7 7 13 14 26 22 15 14 9 7 12 7 1 3 20 14
55 59 67 52 29 19 7 6 9 10 11 5 6 6 4 7 6 8 8 5 4 5 7 3 6 8 8 5 6 9 8 3 7 6 13 19 21 23 19 10 14 8 8 4 14 6 11
51 59 61 37 20 12 6 8 8 12 15 6 8 8 6 7 14 15 17 15 10 8 3 7 8 9 7 6 6 4 8 3 10 2 8 13 14 13 19 11 16 9 12 13 9 3 9
53 57 50 27 19 10 12 12 12 15 18 8 3 9 13 13 11 11 16 19 17 11 13 7 4 4 3 4 4 5 8 7 6 6 8 8 7 5 12 7 4 10 6 2 7 18 25
Wind_Direction_850mb
37 30 25 21 18 17 14 11 9 7 4 1 357 351 346 340 334 332 326 312 304 305 305 292 284 290 313 261 256 219 204 175 169 181 188 190 195 208 223 222 217 235 250 245 244 242 248
31 26 21 17 15 13 11 8 6 4 1 358 354 349 345 338 332 329 325 317 301 299 298 284 275 278 286 256 253 230 203 184 178 179 192 199 211 218 270 230 220 230 239 242 238 238 232
26 22 19 17 16 14 11 7 3 0 359 355 351 347 344 338 332 327 325 318 306 299 291 276 265 272 259 260 255 227 200 188 188 187 197 205 222 199 219 217 225 228 238 222 234 237 234
23 19 17 15 13 12 10 7 3 358 357 353 351 347 346 341 335 330 328 322 316 307 293 266 255 262 259 256 248 213 185 188 187 193 204 213 210 220 225 157 197 228 239 248 189 218 222
19 17 16 13 11 8 6 4 1 357 356 353 351 348 348 344 340 338 340 337 333 329 338 314 259 215 265 307 252 213 192 188 182 192 207 186 178 212 194 213 212 205 249 214 164 207 190
17 13 13 11 7 3 2 1 359 357 357 354 352 351 351 349 352 10 4 354 341 7 38 41 75 238 232 72 122 154 188 184 173 173 176 182 201 214 222 214 225 226 220 225 250 160 224
15 11 9 5 3 3 3 2 359 358 359 358 355 358 1 7 32 29 26 14 352 73 322 305 310 285 291 278 253 231 185 187 192 191 204 200 218 219 218 223 265 261 259 254 235 237 252
13 9 5 2 1 2 1 1 0 360 1 0 358 5 9 27 13 27 36 45 26 315 308 335 316 354 317 256 256 199 193 192 201 212 210 181 228 235 232 227 233 233 237 240 255 230 222
9 7 5 3 2 2 1 360 360 360 1 1 358 3 8 6 21 24 17 1 342 346 264 2 24 1 10 50 233 236 203 206 206 218 202 226 150 232 219 209 222 228 236 230 255 163 236
6 3 2 2 1 2 2 360 359 359 0 1 357 359 3 7 17 6 5 342 332 322 264 37 31 30 359 317 213 299 218 211 215 227 219 236 248 222 217 224 219 237 213 242 225 225 244
1 359 359 356 358 360 360 359 358 357 358 1 357 354 359 0 355 1 336 342 332 281 247 24 20 360 334 3 336 67 215 215 239 219 215 222 226 220 228 236 226 252 224 222 233 242 257
355 354 353 354 357 357 357 357 356 355 356 359 356 350 345 357 1 338 341 341 302 233 107 33 10 354 351 25 32 336 224 222 249 245 221 248 137 263 291 327 246 251 225 236 241 246 237
353 352 353 355 354 354 353 353 354 353 353 356 355 345 315 338 338 337 333 311 251 294 62 27 344 340 341 2 26 24 17 196 262 214 217 201 183 156 313 238 208 219 225 227 221 226 242
352 354 353 351 350 350 349 349 349 350 352 353 356 349 326 340 341 339 331 253 257 53 12 5 329 314 19 10 37 6 279 179 52 280 278 221 184 228 30 264 291 219 242 247 254 246 235
344 347 349 349 349 347 347 346 345 348 350 349 356 25 27 346 344 345 285 273 25 16 355 338 307 286 170 17 325 319 8 353 27 7 282 247 196 141 69 40 267 184 230 352 289 276 279
335 337 342 344 345 345 344 342 342 345 349 350 354 43 2 350 353 351 272 54 58 24 337 316 305 323 311 341 315 334 286 63 32 11 344 51 251 204 118 235 90 295 72 222 229 270 262
333 335 336 339 340 341 340 339 342 343 347 352 2 323 339 350 45 21 32 58 347 50 344 321 322 299 312 324 315 315 300 83 9 326 312 301 267 179 211 211 248 180 196 229 267 229 245
332 333 337 338 338 339 338 338 341 344 346 359 357 309 347 33 66 31 35 357 344 314 339 301 288 295 298 315 302 291 294 333 353 300 294 32 291 263 254 28 285 264 269 278 249 231 239
333 334 337 338 337 338 337 338 340 349 354 355 338 324 352 18 22 38 58 190 280 330 2 315 272 305 315 301 291 275 295 4 356 315 340 156 217 250 213 204 206 245 236 242 257 273 257
334 334 336 337 336 336 337 339 338 352 355 357 333 321 41 46 57 350 0 85 244 331 222 289 302 260 275 260 227 280 275 298 338 356 12 298 275 278 287 2 325 267 237 232 238 244 253
333 335 337 337 336 336 336 338 338 352 358 9 353 59 10 345 47 355 305 310 290 241 225 255 199 278 294 282 285 266 290 281 247 261 242 267 259 250 268 289 279 277 263 235 239 260 269
331 335 338 338 336 336 336 336 339 350 5 35 326 324 288 306 285 277 148 157 292 322 280 215 275 298 286 278 299 302 305 275 280 242 246 211 262 285 276 245 268 272 263 255 260 258 260
332 334 337 336 335 337 336 335 345 348 25 9 324 308 286 131 219 276 49 61 218 310 232 280 314 296 279 311 313 293 285 280 280 285 273 256 263 249 271 172 282 269 262 255 246 241 256
328 332 336 334 334 337 335 337 357 2 18 6 291 296 270 261 257 294 242 274 275 281 278 274 287 271 349 304 293 270 260 258 254 249 237 270 250 274 269 272 273 22 348 289 240 220 221
325 329 334 332 332 336 335 347 350 3 1 5 318 282 284 283 303 259 252 257 262 246 250 274 283 294 312 281 273 263 212 231 235 231 227 224 258 257 252 269 273 280 191 216 203 201 217
319 325 331 328 326 331 334 352 328 348 350 342 314 226 278 304 87 319 262 272 294 287 214 205 239 298 283 279 263 259 270 332 169 171 234 221 232 247 263 238 264 51 83 172 256 257 104
314 324 326 323 319 319 303 315 326 334 323 306 286 265 250 270 286 228 263 304 286 261 287 236 340 225 224 225 257 264 257 298 257 225 167 183 205 223 236 256 289 53 132 142 245 58 117
311 316 319 315 308 300 250 272 298 310 325 305 270 254 212 251 277 258 247 254 223 235 275 29 255 196 244 243 258 275 268 26 267 244 193 186 186 203 224 229 255 117 161 248 70 79 305
308 313 316 306 300 249 257 254 272 280 311 311 291 280 247 255 262 267 229 219 222 247 280 243 302 230 309 271 274 287 258 216 265 258 188 254 257 287 192 220 75 195 281 181 298 300 300